GW5271 Weather Reports


Display with metric or nautical units.
time (UTC)temp
F
wind
direction
speed
MPH
gust
MPH
rain 1hr
in
rain 24hr
in
rain mn
in
humidity
%
barometer
mb
20260504201723 71 272 6.0 14.0 0.00 0.00 0.00 46 1011.9
20260504201220 71 289 9.0 11.0 0.00 0.00 0.00 44 1012.0
20260504200718 70 273 4.0 8.0 0.00 0.00 0.00 46 1011.9
20260504200214 70 273 4.0 10.0 0.00 0.00 0.00 47 1012.0
20260504195711 71 241 7.0 13.0 0.00 0.00 0.00 44 1011.9
20260504195206 72 247 4.0 14.0 0.00 0.00 0.00 48 1011.9
20260504194703 72 198 7.0 15.0 0.00 0.00 0.00 45 1011.7
20260504194159 71 226 9.0 15.0 0.00 0.00 0.00 47 1012.1
20260504193656 70 233 5.0 13.0 0.00 0.00 0.00 49 1012.0
20260504193154 72 279 6.0 13.0 0.00 0.00 0.00 46 1012.1
20260504192652 71 248 4.0 9.0 0.00 0.00 0.00 50 1012.1
20260504192150 71 296 10.0 15.0 0.00 0.00 0.00 47 1012.5
20260504191649 70 256 13.0 16.0 0.00 0.00 0.00 46 1012.6
20260504191144 70 214 9.0 15.0 0.00 0.00 0.00 48 1012.4
20260504190640 70 283 6.0 13.0 0.00 0.00 0.00 49 1012.5
20260504190137 71 283 6.0 10.0 0.00 0.00 0.00 48 1012.4
20260504185633 69 285 7.0 10.0 0.00 0.00 0.00 48 1012.5
20260504185130 70 219 12.0 21.0 0.00 0.00 0.00 48 1012.8
20260504184626 70 252 5.0 10.0 0.00 0.00 0.00 50 1012.8
20260504184121 70 222 7.0 13.0 0.00 0.00 0.00 50 1012.8
20260504183618 69 243 5.0 14.0 0.00 0.00 0.00 49 1012.8
20260504183116 69 249 7.0 13.0 0.00 0.00 0.00 51 1012.9
20260504182613 69 238 5.0 14.0 0.00 0.00 0.00 53 1013.1
20260504182110 68 216 4.0 14.0 0.00 0.00 0.00 56 1012.9
20260504181608 68 216 8.0 13.0 0.00 0.00 0.00 51 1013.1
20260504181105 67 207 8.0 15.0 0.00 0.00 0.00 55 1013.2
20260504180604 68 221 4.0 11.0 0.00 0.00 0.00 56 1013.2
20260504180103 69 202 7.0 10.0 0.00 0.00 0.00 57 1013.2
20260504175600 68 262 3.0 6.0 0.00 0.00 0.00 54 1013.4
20260504175056 66 288 6.0 9.0 0.00 0.00 0.00 57 1013.4
20260504174554 67 253 11.0 11.0 0.00 0.00 0.00 53 1013.5
20260504174051 66 271 7.0 11.0 0.00 0.00 0.00 55 1013.5
20260504173548 65 283 4.0 13.0 0.00 0.00 0.00 57 1013.6
20260504173045 65 285 4.0 13.0 0.00 0.00 0.00 56 1013.7
20260504172541 65 250 8.0 13.0 0.00 0.00 0.00 55 1013.9
20260504172038 65 209 4.0 7.0 0.00 0.00 0.00 59 1014.1
20260504171535 64 228 5.0 15.0 0.00 0.00 0.00 58 1014.0
20260504171032 65 288 9.0 17.0 0.00 0.00 0.00 55 1014.2
20260504170527 66 285 7.0 10.0 0.00 0.00 0.00 56 1013.9
20260504150912 62 268 6.0 11.0 0.00 0.00 0.00 52 1015.4
20260504150408 63 254 9.0 15.0 0.00 0.00 0.00 50 1015.5
20260504140835 61 297 8.0 14.0 0.00 0.00 0.00 49 1015.0
20260504140330 61 226 11.0 15.0 0.00 0.00 0.00 48 1015.4
20260504130759 59 212 4.0 7.0 0.00 0.00 0.00 52 1015.0
20260504130255 58 165 4.0 8.0 0.00 0.00 0.00 51 1015.1
20260504120219 52 155 2.0 3.0 0.00 0.00 0.00 65 1015.6
20260504110646 46 107 0.0 0.0 0.00 0.00 0.00 82 1015.6
20260504110143 46 150 0.0 2.0 0.00 0.00 0.00 81 1015.7
20260504100609 44 142 0.0 0.0 0.00 0.00 0.00 90 1015.9
20260504100108 44 143 0.0 0.0 0.00 0.00 0.00 89 1016.1
20260504082002 48 123 2.0 2.0 0.00 0.00 0.00 65 1016.4
20260504081500 48 120 0.0 1.0 0.00 0.00 0.00 66 1016.4
20260504080955 48 113 0.0 0.0 0.00 0.00 0.00 67 1016.5
20260504080452 48 160 0.0 0.0 0.00 0.00 0.00 67 1016.5
20260504050305 43 124 0.0 0.0 0.00 0.00 0.00 88 1017.0
20260504045803 43 130 0.0 0.0 0.00 0.00 0.00 88 1017.1
20260504045304 43 130 0.0 0.0 0.00 0.00 0.00 90 1017.1
20260504044800 43 127 0.0 0.0 0.00 0.00 0.00 90 1017.1
20260504044257 43 141 0.0 0.0 0.00 0.00 0.00 88 1017.1
20260504043754 43 141 0.0 0.0 0.00 0.00 0.00 87 1017.0
20260504043251 43 141 0.0 0.0 0.00 0.00 0.00 89 1017.0
20260504042749 43 141 0.0 0.0 0.00 0.00 0.00 90 1017.2
20260504042245 43 141 0.0 0.0 0.00 0.00 0.00 90 1017.1
20260504041741 43 141 0.0 0.0 0.00 0.00 0.00 88 1017.1
20260504041237 43 143 0.0 0.0 0.00 0.00 0.00 87 1017.1
20260504040734 43 146 0.0 0.0 0.00 0.00 0.00 87 1017.1
20260504040232 42 146 0.0 0.0 0.00 0.00 0.00 86 1017.3
20260504035727 42 146 0.0 0.0 0.00 0.00 0.00 85 1017.1
20260504035225 42 146 0.0 0.0 0.00 0.00 0.00 89 1017.0
20260504034722 42 139 0.0 0.0 0.00 0.00 0.00 89 1017.2
20260504034219 42 136 0.0 0.0 0.00 0.00 0.00 87 1017.0
20260504033717 42 136 0.0 0.0 0.00 0.00 0.00 84 1017.1
20260504033214 42 136 0.0 0.0 0.00 0.00 0.00 85 1017.1
20260504032711 42 141 0.0 0.0 0.00 0.00 0.00 87 1017.1
20260504032208 42 141 0.0 0.0 0.00 0.00 0.00 86 1017.1
20260504031705 42 141 0.0 0.0 0.00 0.00 0.00 87 1017.3
20260504031202 41 141 0.0 0.0 0.00 0.00 0.00 84 1017.2
20260504030658 41 141 0.0 0.0 0.00 0.00 0.00 85 1017.2
20260504030155 41 141 0.0 0.0 0.00 0.00 0.00 86 1017.3
20260504025651 41 141 0.0 0.0 0.00 0.00 0.00 86 1017.3
20260504025148 41 141 0.0 0.0 0.00 0.00 0.00 86 1017.2
20260504024646 41 141 0.0 0.0 0.00 0.00 0.00 86 1017.4
20260504024142 41 141 0.0 0.0 0.00 0.00 0.00 87 1017.4
20260504023639 40 140 0.0 0.0 0.00 0.00 0.00 84 1017.4
20260504023135 40 141 0.0 0.0 0.00 0.00 0.00 85 1017.3
20260504022631 40 135 0.0 0.0 0.00 0.00 0.00 83 1017.3
20260504022127 40 135 0.0 0.0 0.00 0.00 0.00 83 1017.4
20260504021625 41 135 0.0 0.0 0.00 0.00 0.00 83 1017.5
20260504021121 41 135 0.0 0.0 0.00 0.00 0.00 82 1017.5
20260504020619 40 135 0.0 0.0 0.00 0.00 0.00 82 1017.5
20260504020115 41 166 0.0 0.0 0.00 0.00 0.00 84 1017.4
20260504015611 42 130 0.0 0.0 0.00 0.00 0.00 80 1017.3
20260504015107 41 88 0.0 0.0 0.00 0.00 0.00 80 1017.3
20260504014603 40 150 0.0 0.0 0.00 0.00 0.00 82 1017.5
20260504014101 41 150 0.0 0.0 0.00 0.00 0.00 79 1017.4
20260504013558 41 188 0.0 0.0 0.00 0.00 0.00 81 1017.4
20260504013055 42 171 0.0 0.0 0.00 0.00 0.00 79 1017.2
20260504012552 42 142 0.0 0.0 0.00 0.00 0.00 75 1017.2
20260504012051 42 142 0.0 0.0 0.00 0.00 0.00 76 1017.2
20260504011547 42 161 0.0 0.0 0.00 0.00 0.00 77 1017.5
20260504011043 42 161 0.0 0.0 0.00 0.00 0.00 77 1017.4
20260504010539 43 161 0.0 0.0 0.00 0.00 0.00 76 1017.1
20260504010035 43 159 0.0 0.0 0.00 0.00 0.00 75 1017.1
20260504005532 44 159 0.0 0.0 0.00 0.00 0.00 72 1016.9
20260504005030 44 156 0.0 0.0 0.00 0.00 0.00 69 1017.1
20260504004527 44 173 0.0 0.0 0.00 0.00 0.00 70 1016.8
20260504004024 45 197 0.0 0.0 0.00 0.00 0.00 68 1016.9
20260504003520 46 197 0.0 0.0 0.00 0.00 0.00 67 1016.9
20260504003017 46 201 0.0 0.0 0.00 0.00 0.00 65 1017.0
20260504002514 47 174 0.0 0.0 0.00 0.00 0.00 61 1016.9
20260504002011 48 143 0.0 0.0 0.00 0.00 0.00 60 1016.8
20260504001509 49 9 0.0 0.0 0.00 0.00 0.00 56 1016.9
20260504001005 49 35 0.0 0.0 0.00 0.00 0.00 50 1016.7
20260504000502 49 26 0.0 0.0 0.00 0.00 0.00 51 1016.8
20260503235959 50 354 0.0 0.0 0.00 0.00 0.00 49 1016.9
20260503235457 51 288 0.0 1.0 0.00 0.00 0.00 47 1016.9
20260503234954 51 222 0.0 0.0 0.00 0.00 0.00 47 1017.0
20260503234452 51 280 0.0 1.0 0.00 0.00 0.00 46 1017.0
20260503233950 52 278 0.0 1.0 0.00 0.00 0.00 45 1017.0
20260503233446 53 294 2.0 3.0 0.00 0.00 0.00 44 1016.8
20260503232942 53 234 1.0 2.0 0.00 0.00 0.00 42 1017.1
20260503232439 54 236 2.0 4.0 0.00 0.00 0.00 41 1017.1
20260503231937 54 230 3.0 6.0 0.00 0.00 0.00 39 1017.1
20260503231434 54 254 3.0 4.0 0.00 0.00 0.00 39 1017.1
20260503230931 55 255 4.0 7.0 0.00 0.00 0.00 39 1016.9
20260503230427 55 266 1.0 2.0 0.00 0.00 0.00 42 1017.1
20260503225925 55 321 2.0 6.0 0.00 0.00 0.00 39 1017.1
20260503225422 55 253 3.0 7.0 0.00 0.00 0.00 38 1017.0
20260503224917 55 288 2.0 7.0 0.00 0.00 0.00 39 1017.2
20260503224414 55 298 2.0 7.0 0.00 0.00 0.00 39 1016.9
20260503223912 55 296 4.0 8.0 0.00 0.00 0.00 36 1017.2
20260503223410 55 301 6.0 8.0 0.00 0.00 0.00 40 1017.2
20260503222910 55 260 5.0 7.0 0.00 0.00 0.00 38 1016.9
20260503222409 55 262 4.0 10.0 0.00 0.00 0.00 40 1017.2
20260503221907 55 297 5.0 6.0 0.00 0.00 0.00 36 1017.0
20260503221405 55 299 6.0 9.0 0.00 0.00 0.00 38 1017.1
20260503220901 55 306 5.0 8.0 0.00 0.00 0.00 38 1017.3
20260503220358 55 0 1.0 2.0 0.00 0.00 0.00 36 1017.0
20260503215855 55 276 2.0 8.0 0.00 0.00 0.00 40 1017.1
20260503215352 55 202 5.0 7.0 0.00 0.00 0.00 42 1017.0
20260503214849 55 24 1.0 3.0 0.00 0.00 0.00 35 1017.1
20260503214347 55 339 4.0 7.0 0.00 0.00 0.00 39 1017.0
20260503213844 56 266 2.0 4.0 0.00 0.00 0.00 39 1017.2
20260503213342 55 255 5.0 8.0 0.00 0.00 0.00 39 1017.3
20260503212838 55 285 3.0 8.0 0.00 0.00 0.00 42 1017.3
20260503212336 55 275 6.0 11.0 0.00 0.00 0.00 38 1017.1
20260503211833 56 226 3.0 4.0 0.00 0.00 0.00 35 1017.1
20260503211330 55 219 3.0 8.0 0.00 0.00 0.00 44 1017.2
20260503210825 55 247 4.0 7.0 0.00 0.00 0.00 40 1017.1
20260503210322 56 273 7.0 13.0 0.00 0.00 0.00 40 1017.3
20260503205817 55 12 2.0 6.0 0.00 0.00 0.00 37 1017.2
20260503205314 56 322 4.0 8.0 0.00 0.00 0.00 36 1017.5
20260503204811 57 247 5.0 8.0 0.00 0.00 0.00 42 1017.5
20260503204309 56 221 3.0 4.0 0.00 0.00 0.00 39 1017.3
20260503203806 56 247 3.0 8.0 0.00 0.00 0.00 42 1017.6
20260503203303 56 286 4.0 6.0 0.00 0.00 0.00 37 1017.6
20260503202759 56 243 4.0 10.0 0.00 0.00 0.00 36 1017.5
20260503202258 56 217 6.0 8.0 0.00 0.00 0.00 37 1017.7
20260503201755 56 234 7.0 13.0 0.00 0.00 0.00 39 1017.8